AMGU-1 (AMURSAT) (44394 NORAD) Tracking and Keplerian Element Data

This shows tracking and keplerian element data for the satellite.

Feedback or suggestion? Click here.




ElementValue
Catalog44394
NameAMGU-1 (AMURSAT)
Epoch Orbit232
Epoch Day201.85233499
Epoch Year2019
RAAN163.5084
Inclination97.4908
Eccentricity0.0021764
Argument of Perigee193.1392
Mean Anonmoly166.9275
Mean Motion15.12006983
Decay Rate4.51E-06
L11 44394U 19038J 19201.85233499 .00000451 00000-0 29910-4 0 9996
L22 44394 97.4908 163.5084 0021764 193.1392 166.9275 15.12006983 2326

Live tracking and technical data element details for AMGU-1 (AMURSAT) (NORAD 44394). AMGU-1 (AMURSAT) can be tracked NOW for your location showing map with azimuth and elevation plus other details from your city location.

Track the satellite on the map from your city or location and see movement details for azimuth, elevation, latitude, longitude, range, height, and movement on the map or in text.







IsCatalogInMostPopularTable: catalog: 44394, numindb: 2
Update: records affected: 1



GetName: 44394 AMGU-1 (AMURSAT)

Hit Count: updated at: Sun, 21 Jul 2019 21:28:39 GMT